Home   Weather   Reutte   Past weeks

Flag for Austria Past Weather in Reutte, Tyrol, Austria — Yesterday and Last 2 Weeks

Now
47 °F

Cool.


Feels Like: 47 °F
Forecast: 43 / 66 °F
Wind: 1 mph from Southeast

Location: Landeck

Current Time: Sep 26, 2016 at 7:31:57 AM

Latest Report: Sep 26, 2016 at 7:00 AM


Visibility: N/A

Pressure: 30.26 "Hg (27.27 "Hg at 856m altitude)

Humidity: 87%

Dew Point: 43 °F

Location of ReutteLocation

Past Weather in Reutte — Graph

°F

Reutte Temperature Yesterday

Maximum temperature yesterday: 74 °F (at 4:00 PM)
Minimum temperature yesterday: 49 °F (at 6:00 AM)
Average temperature yesterday: 60 °F

High & Low Weather Summary for the Past Weeks

 TemperatureHumidityPressure
High84 °F (Sep 14, 4:00 PM)94% (Sep 17, 7:00 AM)30.38 "Hg (Sep 17, 7:00 AM)
Low47 °F (Sep 23, 8:00 AM)28% (Sep 14, 4:00 PM)29.75 "Hg (Sep 14, 4:00 PM)
Average59 °F72%30.06 "Hg
* Reported Sep 11 6:00 AM — Sep 26 6:00 AM, Reutte, Weather by CustomWeather, © 2016

Note: Actual official high and low records may vary slightly from our data, if they occured in-between our weather recording intervals... More about our weather records

Advertising

Reutte Weather History for the Previous 24 Hours

Scroll right to see more
 ConditionsComfort  
Time TempWeatherWind HumidityBarometerVisibility
6:00 AM
Mon, Sep 26
47 °FCool.No wind88%30.26 "HgN/A
5:00 AM47 °FCool.1 mph87%30.25 "HgN/A
4:00 AM49 °FCool.1 mph86%30.24 "HgN/A
3:00 AM50 °FCool.1 mph85%30.23 "HgN/A
2:00 AM51 °FCool.No wind83%30.22 "HgN/A
1:00 AM53 °FCool.No wind81%30.19 "HgN/A
12:00 AM56 °FCool.1 mph78%30.17 "HgN/A
11:00 PM
Sun, Sep 25
59 °FCool.1 mph71%30.15 "HgN/A
10:00 PM60 °FCool.No wind68%30.13 "HgN/A
9:00 PM62 °FCool.1 mph66%30.11 "HgN/A
8:00 PM65 °FMild.1 mph55%30.07 "HgN/A
7:00 PM67 °FMild.No wind53%30.03 "HgN/A
6:00 PM70 °FMild.1 mph47%29.99 "HgN/A
5:00 PM71 °FMild.2 mph42%29.96 "HgN/A
4:00 PM74 °FMild.3 mph36%29.95 "HgN/A
3:00 PM74 °FMild.2 mph36%29.97 "HgN/A
2:00 PM72 °FMild.No wind40%30.01 "HgN/A
1:00 PM68 °FMild.1 mph47%30.06 "HgN/A
12:00 PM65 °FMild.3 mph49%30.11 "HgN/A
11:00 AM60 °FRefreshingly cool.5 mph58%30.17 "HgN/A
10:00 AM56 °FCool.3 mph65%30.22 "HgN/A
9:00 AM51 °FCool.5 mph74%30.26 "HgN/A
8:00 AMN/APassing clouds.6 mphN/AN/A5 mi
7:00 AM49 °FCool.2 mph81%30.28 "HgN/A
Weather by CustomWeather, © 2016

See weather overviewHow to use our weather pages